KONTKSAN

Guest
Details From KONT - Ontario Intl
To KSAN - San Diego Intl
Flight Number -
Tags generated
Created
Modified
Stats Distance 82 nm / 152 km
Max Altitude 600 ft / 183 m
Waypoints 3
Social Downloads 0
Likes 0
Share VATSIM

Download

Looking for another format? Having issues loading an existing format? Contact us
Advertisement - Login to hide

Notes

Basic altitude profile: - Ascent Rate: 1200ft/min - Ascent Speed: 75kts - Cruise Altitude: 600ft - Cruise Speed: 160kts - Descent Rate: 1200ft/min - Descent Speed: 75kts

Route

KONT DEJAY KSAN

ID Type Via Altitude Latitude Longitude Leg Dist Tot Dist Heading (true) Name
O KONT APT - 0 ft / 0 m 34.05592˚ -117.60085˚ - 0 nm - Ontario Intl
DEJAY FIX - 600 ft / 183 m 33.77954˚ -117.49769˚ 17 nm 17 nm 163° / 163° -
O KSAN APT - 0 ft / 0 m 32.73356˚ -117.18966˚ 64 nm 82 nm 166° / 166° San Diego Intl

Altitude Profile

Advertisement - Login to hide

KONT

Details ICAO KONT (ONT)
Name Ontario Intl
Region United States
Timezone America/Los_Angeles (UTC-8.0)
Stats Elevation 944 ft / 288 m (AMSL)
Location 34.055917° -117.600853°
Runways 2
Magnetic Variation 11.863° E

METAR

KONT 140053Z 26004KT 10SM CLR 24/M16 A2994 RMK AO2 SLP132 T02391161

Decode

TAF

KONT 132339Z 1400/1506 VRB05KT P6SM SKC FM141500 03015G25KT P6SM SKC FM150000 VRB05KT P6SM SKC

Decode

Departure Runways

ID Width Length Bearing (true) Bearing (mag) Surface Threshold Offset Overrun Length
08L 151 ft / 46 m 12,279 ft / 3,743 m 89.96° 78.10° Concrete 997 ft / 304 m 400 ft / 122 m
26L 151 ft / 46 m 10,269 ft / 3,130 m 269.97° 258.11° Concrete 0 ft / 0 m 400 ft / 122 m
26R 151 ft / 46 m 12,279 ft / 3,743 m 269.99° 258.13° Concrete 0 ft / 0 m 400 ft / 122 m
8R 151 ft / 46 m 10,269 ft / 3,130 m 89.95° 78.09° Concrete 0 ft / 0 m 400 ft / 122 m

KSAN

Details ICAO KSAN (SAN)
Name San Diego Intl
Region United States
Timezone America/Los_Angeles (UTC-8.0)
Stats Elevation 17 ft / 5 m (AMSL)
Location 32.733556° -117.189658°
Runways 1
Magnetic Variation 11.525° E

METAR

KSAN 140051Z 31003KT 10SM FEW250 21/M01 A2995 RMK AO2 SLP143 T02061011

Decode

TAF

KSAN 132339Z 1400/1506 VRB04KT P6SM SKC FM142100 30009KT P6SM SKC FM150100 VRB04KT P6SM SKC

Decode

Destination Runways

ID Width Length Bearing (true) Bearing (mag) Surface Threshold Offset Overrun Length
09 200 ft / 61 m 9,387 ft / 2,861 m 106.07° 94.54° Asphalt 699 ft / 213 m 269 ft / 82 m
27 200 ft / 61 m 9,387 ft / 2,861 m 286.08° 274.55° Asphalt 1,811 ft / 552 m 0 ft / 0 m

Approach Navaids

Runway Type Ident Frequency Range Bearing (true) Bearing (mag) Slope Elevation
09 Localiser ISAN 111.55 MHz 18 nm / 33 km 106.08° 94.55° - 17 ft / 5 m (AMSL)
09 Glidescope ISAN 111.55 MHz 10 nm / 19 km 106.08° 94.55° 3.22° 13 ft / 4 m (AMSL)
09 DME ISAN 111.55 MHz 18 nm / 33 km - - - 29 ft / 9 m (AMSL)
27 Localiser IUBR 110.90 MHz 18 nm / 33 km 286.07° 274.54° - 13 ft / 4 m (AMSL)
27 DME IUBR 110.90 MHz 18 nm / 33 km - - - 26 ft / 8 m (AMSL)

Popular Alternatives